DW0275 Weather Reports


Display with metric or nautical units.
time (UTC)temp
F
wind
direction
speed
MPH
gust
MPH
rain 1hr
in
rain 24hr
in
rain mn
in
humidity
%
barometer
mb
20260903010816 84 127 2.0 4.0 0.00 0.00 0.00 85 1015.0
20260903010334 84 115 1.0 3.0 0.00 0.00 0.00 85 1015.1
20260903010011 84 120 0.0 3.0 0.00 0.00 0.00 85 1015.0
20260903005830 84 81 1.0 3.0 0.00 0.00 0.00 85 1015.0
20260903005329 84 106 1.0 3.0 0.00 0.00 0.00 85 1015.0
20260903004827 84 110 1.0 3.0 0.00 0.00 0.00 85 1015.2
20260903004541 84 141 0.0 2.0 0.00 0.00 0.00 85 1015.0
20260903004326 84 114 0.0 2.0 0.00 0.00 0.00 85 1015.1
20260903003823 84 127 1.0 2.0 0.00 0.00 0.00 85 1014.9
20260903003321 84 58 0.0 3.0 0.00 0.00 0.00 85 1014.9
20260903003016 84 124 0.0 3.0 0.00 0.00 0.00 85 1014.7
20260903002817 84 120 0.0 2.0 0.00 0.00 0.00 85 1014.8
20260903002316 84 141 1.0 2.0 0.00 0.00 0.00 85 1014.5
20260903001815 84 68 0.0 2.0 0.00 0.00 0.00 85 1014.4
20260903001504 84 82 0.0 1.0 0.00 0.00 0.00 85 1014.3
20260903001400 84 142 0.0 2.0 0.00 0.00 0.00 85 1014.4
20260903000854 84 117 0.0 2.0 0.00 0.00 0.00 85 1014.4
20260903000352 84 126 0.0 1.0 0.00 0.00 0.00 85 1014.5
20260903000036 84 137 0.0 0.0 0.00 0.00 0.00 85 1014.4
20260902235848 84 137 0.0 0.0 0.00 0.00 0.00 85 1014.6
20260902235324 85 139 0.0 4.0 0.00 0.00 0.00 85 1014.6
20260902234840 84 139 2.0 4.0 0.00 0.00 0.00 85 1014.7
20260902234508 84 120 0.0 3.0 0.00 0.00 0.00 85 1014.4
20260902234355 84 120 0.0 3.0 0.00 0.00 0.00 84 1014.4
20260902233851 85 141 1.0 2.0 0.00 0.00 0.00 84 1014.2
20260902233326 85 71 0.0 5.0 0.00 0.00 0.00 84 1014.2
20260902233046 84 75 0.0 5.0 0.00 0.00 0.00 84 1014.2
20260902232823 85 129 1.0 5.0 0.00 0.00 0.00 84 1014.3
20260902232320 84 49 0.0 2.0 0.00 0.00 0.00 84 1014.3
20260902231838 84 72 0.0 3.0 0.00 0.00 0.00 85 1014.3
20260902231528 84 157 1.0 3.0 0.00 0.00 0.00 85 1014.1
20260902231334 84 109 1.0 3.0 0.00 0.00 0.00 85 1014.3
20260902230852 83 129 0.0 2.0 0.00 0.00 0.00 84 1014.3
20260902230327 84 65 0.0 1.0 0.00 0.00 0.00 84 1014.4
20260902230029 84 65 0.0 3.0 0.00 0.00 0.00 85 1014.4
20260902225823 84 126 0.0 3.0 0.00 0.00 0.00 85 1014.5
20260902225339 84 240 1.0 3.0 0.00 0.00 0.00 85 1014.6
20260902224815 84 339 0.0 0.0 0.00 0.00 0.00 85 1014.4
20260902224600 83 342 0.0 0.0 0.00 0.00 0.00 84 1014.4
20260902224331 84 342 0.0 0.0 0.00 0.00 0.00 84 1014.3
20260902223829 84 13 0.0 0.0 0.00 0.00 0.00 84 1014.4
20260902223326 84 11 0.0 1.0 0.00 0.00 0.00 84 1014.5
20260902223045 84 11 0.0 1.0 0.00 0.00 0.00 84 1014.3
20260902222823 85 11 0.0 1.0 0.00 0.00 0.00 83 1014.4
20260902222319 85 76 0.0 3.0 0.00 0.00 0.00 83 1014.3
20260902221535 85 141 1.0 7.0 0.00 0.00 0.00 83 1014.4
20260902221330 86 121 3.0 7.0 0.00 0.00 0.00 83 1014.4
20260902220847 86 142 2.0 9.0 0.00 0.00 0.00 83 1014.2
20260902220322 86 144 3.0 6.0 0.00 0.00 0.00 83 1014.2
20260902220007 85 111 2.0 6.0 0.00 0.00 0.00 82 1014.1
20260902215818 86 131 2.0 6.0 0.00 0.00 0.00 83 1014.2
20260902215316 86 140 2.0 6.0 0.00 0.00 0.00 82 1014.1
20260902214834 86 90 3.0 8.0 0.00 0.00 0.00 82 1014.0
20260902214555 86 131 3.0 8.0 0.00 0.00 0.00 82 1014.0
20260902214332 86 122 4.0 8.0 0.00 0.00 0.00 82 1014.1
20260902213830 86 70 2.0 8.0 0.00 0.00 0.00 82 1014.2
20260902213327 87 154 4.0 6.0 0.00 0.00 0.00 82 1014.1
20260902213050 86 139 3.0 7.0 0.00 0.00 0.00 82 1014.0
20260902212822 87 46 1.0 7.0 0.00 0.00 0.00 82 1014.1
20260902212320 87 139 3.0 7.0 0.00 0.00 0.00 82 1014.0
20260902211817 87 141 3.0 8.0 0.00 0.00 0.00 82 1014.0
20260902211528 87 133 4.0 8.0 0.00 0.00 0.00 82 1014.0
20260902211329 87 117 4.0 7.0 0.00 0.00 0.00 82 1014.1
20260902210826 87 136 2.0 8.0 0.00 0.00 0.00 82 1014.0
20260902210323 87 116 5.0 8.0 0.00 0.00 0.00 82 1014.0
20260902210024 87 135 3.0 8.0 0.00 0.00 0.00 82 1014.0
20260902205820 87 129 4.0 8.0 0.00 0.00 0.00 82 1014.0
20260902205316 87 108 2.0 6.0 0.00 0.00 0.00 82 1014.0
20260902204833 87 149 3.0 6.0 0.00 0.00 0.00 82 1014.0
20260902204553 87 128 2.0 5.0 0.00 0.00 0.00 82 1013.8
20260902204331 87 48 3.0 5.0 0.00 0.00 0.00 82 1013.9
20260902203828 87 41 2.0 6.0 0.00 0.00 0.00 82 1013.9
20260902203325 88 85 3.0 8.0 0.00 0.00 0.00 82 1013.8
20260902203058 87 142 2.0 8.0 0.00 0.00 0.00 82 1013.7
20260902202821 88 145 2.0 10.0 0.00 0.00 0.00 82 1013.9
20260902202317 88 30 3.0 10.0 0.00 0.00 0.00 82 1014.0
20260902201833 88 37 3.0 8.0 0.00 0.00 0.00 82 1014.1
20260902201526 88 28 2.0 8.0 0.00 0.00 0.00 82 1014.0
20260902201329 88 122 2.0 8.0 0.00 0.00 0.00 82 1014.1
20260902200825 88 51 3.0 9.0 0.00 0.00 0.00 81 1014.1
20260902200321 89 31 4.0 9.0 0.00 0.00 0.00 82 1014.2
20260902200013 88 84 2.0 6.0 0.00 0.00 0.00 82 1014.0
20260902195817 89 94 2.0 7.0 0.00 0.00 0.00 82 1014.1
20260902195315 89 170 3.0 7.0 0.00 0.00 0.00 82 1014.1
20260902194831 89 51 3.0 6.0 0.00 0.00 0.00 82 1014.1
20260902194557 88 85 2.0 6.0 0.00 0.00 0.00 82 1014.0
20260902194328 88 127 2.0 7.0 0.00 0.00 0.00 82 1014.2
20260902193824 89 63 2.0 7.0 0.00 0.00 0.00 82 1014.4
20260902193320 88 124 4.0 7.0 0.00 0.00 0.00 81 1014.5
20260902193044 88 108 3.0 7.0 0.00 0.00 0.00 82 1014.4
20260902192817 88 111 3.0 6.0 0.00 0.00 0.00 82 1014.5
20260902192331 88 37 3.0 7.0 0.00 0.00 0.00 82 1014.7
20260902191847 89 127 3.0 7.0 0.00 0.00 0.00 82 1014.8
20260902191600 88 22 3.0 7.0 0.00 0.00 0.00 81 1014.7
20260902191502 88 110 3.0 7.0 0.00 0.00 0.00 81 1014.7
20260902191324 89 70 3.0 7.0 0.00 0.00 0.00 81 1014.8
20260902190818 89 68 2.0 9.0 0.00 0.00 0.00 81 1014.9
20260902190336 90 29 3.0 9.0 0.00 0.00 0.00 81 1014.9
20260902190048 90 61 5.0 9.0 0.00 0.00 0.00 80 1014.8
20260902185831 91 50 3.0 9.0 0.00 0.00 0.00 80 1014.9
20260902185328 91 46 2.0 6.0 0.00 0.00 0.00 75 1014.8
20260902184823 92 333 0.0 2.0 0.00 0.00 0.00 76 1014.9
20260902184517 92 110 0.0 1.0 0.00 0.00 0.00 75 1014.8
20260902184319 92 111 0.0 2.0 0.00 0.00 0.00 75 1015.0
20260902183815 91 111 0.0 3.0 0.00 0.00 0.00 76 1015.0
20260902183331 90 148 1.0 6.0 0.00 0.00 0.00 76 1015.3
20260902183114 89 35 0.0 6.0 0.00 0.00 0.00 77 1015.2
20260902183002 89 35 0.0 6.0 0.00 0.00 0.00 77 1015.1
20260902182827 90 89 3.0 6.0 0.00 0.00 0.00 77 1015.2
20260902182344 90 30 2.0 5.0 0.00 0.00 0.00 77 1015.2
20260902181840 90 62 2.0 5.0 0.00 0.00 0.00 77 1015.5
20260902181520 90 44 0.0 4.0 0.00 0.00 0.00 78 1015.3
20260902181357 90 136 0.0 4.0 0.00 0.00 0.00 78 1015.3
20260902180854 90 46 2.0 7.0 0.00 0.00 0.00 79 1015.4
20260902180345 89 107 2.0 7.0 0.00 0.00 0.00 79 1015.5
20260902180057 89 25 2.0 7.0 0.00 0.00 0.00 79 1015.3
20260902175821 89 146 0.0 4.0 0.00 0.00 0.00 79 1015.6
20260902175318 89 356 1.0 4.0 0.00 0.00 0.00 78 1015.6
20260902174836 89 46 2.0 5.0 0.00 0.00 0.00 77 1015.6
20260902174544 89 328 1.0 5.0 0.00 0.00 0.00 77 1015.5
20260902174349 90 2 3.0 5.0 0.00 0.00 0.00 77 1015.6
20260902173844 91 22 1.0 3.0 0.00 0.00 0.00 77 1015.7
20260902173320 92 359 0.0 0.0 0.00 0.00 0.00 77 1015.8
20260902173043 91 345 0.0 0.0 0.00 0.00 0.00 76 1015.7
20260902172818 92 340 0.0 0.0 0.00 0.00 0.00 78 1015.9
20260902172332 91 24 0.0 0.0 0.00 0.00 0.00 79 1016.0
20260902171828 91 41 0.0 1.0 0.00 0.00 0.00 79 1016.1
20260902171522 90 206 0.0 2.0 0.00 0.00 0.00 80 1016.1
20260902171325 90 189 0.0 2.0 0.00 0.00 0.00 79 1016.1
20260902170821 90 17 0.0 2.0 0.00 0.00 0.00 80 1016.3
20260902170317 89 349 0.0 2.0 0.00 0.00 0.00 81 1016.6
20260902170011 88 6 0.0 3.0 0.00 0.00 0.00 82 1016.5
20260902165815 88 360 0.0 3.0 0.00 0.00 0.00 82 1016.7
20260902165334 87 356 1.0 3.0 0.00 0.00 0.00 81 1016.7
20260902164831 88 353 0.0 1.0 0.00 0.00 0.00 82 1016.8
20260902164550 87 353 0.0 0.0 0.00 0.00 0.00 82 1016.6
20260902164327 88 353 0.0 0.0 0.00 0.00 0.00 82 1016.7
20260902163823 87 353 0.0 0.0 0.00 0.00 0.00 83 1016.8
20260902163320 87 353 0.0 2.0 0.00 0.00 0.00 83 1016.8
20260902163011 86 353 0.0 2.0 0.00 0.00 0.00 82 1016.8
20260902162818 87 359 0.0 2.0 0.00 0.00 0.00 82 1016.9
20260902162332 87 321 0.0 0.0 0.00 0.00 0.00 82 1017.0
20260902161830 87 314 0.0 1.0 0.00 0.00 0.00 83 1017.0
20260902161601 87 314 0.0 1.0 0.00 0.00 0.00 83 1016.8
20260902161326 87 314 0.0 1.0 0.00 0.00 0.00 83 1017.0
20260902160821 87 44 0.0 1.0 0.00 0.00 0.00 84 1016.9
20260902160318 86 44 0.0 2.0 0.00 0.00 0.00 84 1016.9
20260902160041 86 44 0.0 2.0 0.00 0.00 0.00 84 1016.8
20260902155834 86 359 0.0 2.0 0.00 0.00 0.00 84 1017.0
20260902155329 85 278 0.0 1.0 0.00 0.00 0.00 85 1017.0
20260902154825 85 5 0.0 0.0 0.00 0.00 0.00 85 1017.0
20260902154534 84 5 0.0 2.0 0.00 0.00 0.00 85 1016.9
20260902154321 85 34 0.0 2.0 0.00 0.00 0.00 85 1017.0
20260902153818 84 357 0.0 2.0 0.00 0.00 0.00 85 1017.0
20260902153334 84 28 0.0 2.0 0.00 0.00 0.00 87 1017.1
20260902153021 83 28 0.0 3.0 0.00 0.00 0.00 86 1017.0
20260902152831 83 22 0.0 3.0 0.00 0.00 0.00 86 1017.1
20260902152326 83 351 1.0 3.0 0.00 0.00 0.00 87 1017.1
20260902151823 83 44 1.0 3.0 0.00 0.00 0.00 87 1017.1
20260902151558 83 43 1.0 3.0 0.00 0.00 0.00 87 1017.0
20260902151321 83 359 2.0 3.0 0.00 0.00 0.00 87 1017.2
20260902150819 83 38 2.0 4.0 0.00 0.00 0.00 87 1017.1
20260902150335 83 34 1.0 4.0 0.00 0.00 0.00 88 1017.0
20260902150011 83 323 2.0 4.0 0.00 0.00 0.00 87 1016.8
20260902145849 83 348 2.0 3.0 0.00 0.00 0.00 87 1016.9
20260902145342 83 1 1.0 3.0 0.00 0.00 0.00 88 1016.8
20260902144817 83 25 0.0 1.0 0.00 0.00 0.00 89 1016.8
20260902144519 82 8 0.0 1.0 0.00 0.00 0.00 89 1016.7
20260902144335 83 8 1.0 1.0 0.00 0.00 0.00 89 1016.8
20260902143850 83 351 0.0 1.0 0.00 0.00 0.00 90 1016.8
20260902143345 82 351 0.0 2.0 0.00 0.00 0.00 90 1016.9
20260902143014 82 30 0.0 2.0 0.00 0.00 0.00 90 1016.8
20260902142840 82 354 0.0 2.0 0.00 0.00 0.00 90 1016.9
20260902142316 82 348 1.0 2.0 0.00 0.00 0.00 90 1016.9
20260902141833 82 345 1.0 2.0 0.00 0.00 0.00 90 1016.9
20260902141536 81 25 0.0 2.0 0.00 0.00 0.00 90 1016.8
20260902141327 82 30 1.0 1.0 0.00 0.00 0.00 91 1016.8
20260902140824 81 345 0.0 0.0 0.00 0.00 0.00 91 1016.9
20260902140321 81 345 0.0 0.0 0.00 0.00 0.00 91 1016.8
20260902140055 80 345 0.0 1.0 0.00 0.00 0.00 91 1016.6
20260902135837 81 345 0.0 2.0 0.00 0.00 0.00 92 1016.7
20260902135325 81 345 1.0 2.0 0.00 0.00 0.00 92 1016.6
20260902134821 81 352 0.0 0.0 0.00 0.00 0.00 92 1016.5
20260902134517 80 352 0.0 0.0 0.00 0.00 0.00 92 1016.4
20260902134338 81 352 0.0 0.0 0.00 0.00 0.00 92 1016.5
20260902133834 81 352 0.0 0.0 0.00 0.00 0.00 93 1016.6
20260902133331 80 352 0.0 0.0 0.00 0.00 0.00 93 1016.6
20260902133045 80 352 0.0 0.0 0.00 0.00 0.00 93 1016.4
20260902132828 80 352 0.0 0.0 0.00 0.00 0.00 93 1016.4
20260902132325 80 352 0.0 0.0 0.00 0.00 0.00 93 1016.3
20260902131822 80 352 0.0 1.0 0.00 0.00 0.00 93 1016.2
20260902131525 80 352 0.0 2.0 0.00 0.00 0.00 93 1016.1
20260902131321 80 352 0.0 2.0 0.00 0.00 0.00 93 1016.3
20260902130816 80 351 0.0 1.0 0.00 0.00 0.00 93 1016.4
20260902130332 80 65 0.0 1.0 0.00 0.00 0.00 94 1016.4
20260902130015 80 65 0.0 1.0 0.00 0.00 0.00 94 1016.3
20260902125850 80 65 0.0 0.0 0.00 0.00 0.00 94 1016.4
20260902125325 80 65 0.0 0.0 0.00 0.00 0.00 94 1016.3
20260902124821 80 65 0.0 0.0 0.00 0.00 0.00 94 1016.2
20260902124541 79 65 0.0 0.0 0.00 0.00 0.00 94 1016.2
20260902124317 80 65 0.0 0.0 0.00 0.00 0.00 94 1016.3
20260902123814 80 65 0.0 0.0 0.00 0.00 0.00 94 1016.3
20260902123326 79 65 0.0 1.0 0.00 0.00 0.00 94 1016.2
20260902123029 79 65 0.0 1.0 0.00 0.00 0.00 94 1016.1
20260902122823 79 65 0.0 1.0 0.00 0.00 0.00 94 1016.1
20260902122318 79 74 0.0 0.0 0.00 0.00 0.00 94 1016.1
20260902121815 79 74 0.0 0.0 0.00 0.00 0.00 94 1016.1
20260902121518 78 74 0.0 0.0 0.00 0.00 0.00 94 1016.0
20260902121331 79 74 0.0 0.0 0.00 0.00 0.00 94 1016.1
20260902120828 79 74 0.0 0.0 0.00 0.00 0.00 94 1016.1
20260902120346 79 74 0.0 0.0 0.00 0.00 0.00 94 1016.1
20260902115843 79 74 0.0 0.0 0.00 0.00 0.00 94 1016.2
20260902115337 79 74 0.0 0.0 0.00 0.00 0.00 94 1016.3
20260902114830 79 74 0.0 0.0 0.00 0.00 0.00 94 1016.1
20260902114547 78 74 0.0 0.0 0.00 0.00 0.00 94 1016.1
20260902114326 79 74 0.0 0.0 0.00 0.00 0.00 94 1016.2
20260902113820 79 74 0.0 0.0 0.00 0.00 0.00 94 1016.1
20260902113338 79 74 0.0 0.0 0.00 0.00 0.00 94 1016.2
20260902113013 78 74 0.0 0.0 0.00 0.00 0.00 94 1016.0
20260902112815 78 74 0.0 0.0 0.00 0.00 0.00 94 1016.1
20260902112330 78 74 0.0 0.0 0.00 0.00 0.00 94 1016.0
20260902111827 78 74 0.0 0.0 0.00 0.00 0.00 94 1015.9
20260902111604 78 74 0.0 0.0 0.00 0.00 0.00 94 1015.8
20260902111324 78 74 0.0 0.0 0.00 0.00 0.00 94 1015.9
20260902110821 78 74 0.0 0.0 0.00 0.00 0.00 94 1015.8
20260902110318 78 74 0.0 0.0 0.00 0.00 0.00 94 1015.9
20260902110039 78 74 0.0 0.0 0.00 0.00 0.00 94 1015.7
20260902105834 78 74 0.0 0.0 0.00 0.00 0.00 94 1015.7
20260902105329 78 74 0.0 0.0 0.00 0.00 0.00 94 1015.6
20260902104826 78 74 0.0 0.0 0.00 0.00 0.00 93 1015.5
20260902104529 78 74 0.0 0.0 0.00 0.00 0.00 93 1015.5
20260902104324 78 74 0.0 0.0 0.00 0.00 0.00 93 1015.5
20260902103822 78 74 0.0 0.0 0.00 0.00 0.00 93 1015.6
20260902103338 78 74 0.0 0.0 0.00 0.00 0.00 93 1015.7
20260902103055 78 74 0.0 0.0 0.00 0.00 0.00 93 1015.5
20260902102834 78 74 0.0 0.0 0.00 0.00 0.00 93 1015.8
20260902102330 78 74 0.0 0.0 0.00 0.00 0.00 93 1015.8
20260902101826 78 74 0.0 0.0 0.00 0.00 0.00 93 1015.7
20260902101544 77 74 0.0 0.0 0.00 0.00 0.00 93 1015.6
20260902101322 78 74 0.0 0.0 0.00 0.00 0.00 93 1015.7
20260902100819 78 74 0.0 0.0 0.00 0.00 0.00 93 1015.7
20260902100316 78 74 0.0 0.0 0.00 0.00 0.00 93 1015.7
20260902100029 78 74 0.0 0.0 0.00 0.00 0.00 93 1015.4
20260902095833 78 74 0.0 0.0 0.00 0.00 0.00 93 1015.5
20260902095330 78 74 0.0 0.0 0.00 0.00 0.00 93 1015.2
20260902094827 78 74 0.0 0.0 0.00 0.00 0.00 93 1015.1
20260902094517 78 74 0.0 0.0 0.00 0.00 0.00 93 1015.0
20260902094343 78 74 0.0 0.0 0.00 0.00 0.00 93 1015.0
20260902093819 78 74 0.0 0.0 0.00 0.00 0.00 93 1015.0
20260902093315 78 74 0.0 0.0 0.00 0.00 0.00 93 1015.0
20260902093041 78 74 0.0 0.0 0.00 0.00 0.00 93 1014.9
20260902092855 78 74 0.0 0.0 0.00 0.00 0.00 93 1015.0
20260902092330 78 101 0.0 0.0 0.00 0.00 0.00 93 1015.0
20260902091825 78 123 0.0 0.0 0.00 0.00 0.00 93 1015.2
20260902091504 78 123 0.0 0.0 0.00 0.00 0.00 93 1015.0
20260902091321 78 123 0.0 0.0 0.00 0.00 0.00 93 1015.1
20260902090816 78 123 0.0 0.0 0.00 0.00 0.00 93 1015.0
20260902090332 78 123 0.0 0.0 0.00 0.00 0.00 93 1015.1
20260902090047 78 123 0.0 0.0 0.00 0.00 0.00 93 1015.0
20260902085828 78 123 0.0 0.0 0.00 0.00 0.00 93 1015.1
20260902085325 78 123 0.0 0.0 0.00 0.00 0.00 93 1015.0
20260902084821 78 123 0.0 0.0 0.00 0.00 0.00 92 1015.0
20260902084528 78 123 0.0 0.0 0.00 0.00 0.00 92 1015.0
20260902084339 78 123 0.0 0.0 0.00 0.00 0.00 92 1015.1
20260902083815 78 123 0.0 0.0 0.00 0.00 0.00 92 1015.1
20260902083330 78 123 0.0 0.0 0.00 0.00 0.00 92 1015.1
20260902083057 78 123 0.0 0.0 0.00 0.00 0.00 92 1015.1
20260902082827 78 123 0.0 0.0 0.00 0.00 0.00 92 1015.2
20260902082324 78 123 0.0 0.0 0.00 0.00 0.00 92 1015.2
20260902081820 78 123 0.0 0.0 0.00 0.00 0.00 92 1015.3
20260902081536 78 123 0.0 0.0 0.00 0.00 0.00 92 1015.1
20260902081336 78 123 0.0 0.0 0.00 0.00 0.00 92 1015.2
20260902080853 79 123 0.0 0.0 0.00 0.00 0.00 92 1015.2
20260902080327 79 123 0.0 0.0 0.00 0.00 0.00 92 1015.1
20260902080055 78 123 0.0 0.0 0.00 0.00 0.00 92 1015.0
20260902075826 79 123 0.0 0.0 0.00 0.00 0.00 92 1015.1
20260902075322 79 123 0.0 0.0 0.00 0.00 0.00 91 1015.2
20260902074819 79 123 0.0 0.0 0.00 0.00 0.00 91 1015.2
20260902074541 78 123 0.0 0.0 0.00 0.00 0.00 91 1015.1
20260902074315 79 123 0.0 0.0 0.00 0.00 0.00 91 1015.2
20260902073832 79 123 0.0 0.0 0.00 0.00 0.00 91 1015.2
20260902073329 79 123 0.0 0.0 0.00 0.00 0.00 91 1015.2
20260902073022 79 123 0.0 0.0 0.00 0.00 0.00 91 1015.1
20260902072846 79 123 0.0 0.0 0.00 0.00 0.00 91 1015.2
20260902072322 79 123 0.0 0.0 0.00 0.00 0.00 91 1015.2
20260902071819 79 123 0.0 1.0 0.00 0.00 0.00 91 1015.3
20260902071550 79 123 0.0 1.0 0.00 0.00 0.00 91 1015.1
20260902071315 79 123 0.0 2.0 0.00 0.00 0.00 91 1015.3
20260902070832 79 123 0.0 2.0 0.00 0.00 0.00 91 1015.3
20260902070328 79 136 0.0 1.0 0.00 0.00 0.00 91 1015.3
20260902070034 79 136 0.0 1.0 0.00 0.00 0.00 91 1015.2
20260902065827 79 136 0.0 1.0 0.00 0.00 0.00 91 1015.3
20260902065323 79 136 0.0 2.0 0.00 0.00 0.00 91 1015.4
20260902064819 79 141 0.0 3.0 0.00 0.00 0.00 91 1015.3
20260902064517 79 79 0.0 4.0 0.00 0.00 0.00 91 1015.2
20260902064317 80 105 0.0 4.0 0.00 0.00 0.00 91 1015.4
20260902063832 80 129 1.0 4.0 0.00 0.00 0.00 91 1015.5
20260902063329 80 77 1.0 6.0 0.00 0.00 0.00 91 1015.6
20260902063003 79 127 2.0 6.0 0.00 0.00 0.00 91 1015.5
20260902062847 80 127 1.0 5.0 0.00 0.00 0.00 91 1015.8
20260902062343 80 136 2.0 6.0 0.00 0.00 0.00 91 1015.9
20260902061818 80 124 1.0 4.0 0.00 0.00 0.00 91 1015.9
20260902061600 80 131 1.0 4.0 0.00 0.00 0.00 91 1015.7
20260902061502 80 136 1.0 4.0 0.00 0.00 0.00 91 1015.7
20260902061315 80 111 1.0 4.0 0.00 0.00 0.00 91 1015.8
20260902060827 80 143 0.0 2.0 0.00 0.00 0.00 92 1015.7
20260902060323 80 123 0.0 0.0 0.00 0.00 0.00 92 1015.7
20260902060042 80 61 0.0 0.0 0.00 0.00 0.00 92 1015.5
20260902055822 80 49 0.0 0.0 0.00 0.00 0.00 92 1015.6
20260902055338 80 322 0.0 0.0 0.00 0.00 0.00 92 1015.6
20260902054834 80 354 0.0 0.0 0.00 0.00 0.00 92 1015.6
20260902054506 79 354 0.0 0.0 0.00 0.00 0.00 92 1015.5
20260902054330 80 16 0.0 0.0 0.00 0.00 0.00 92 1015.6
20260902053827 80 56 0.0 0.0 0.00 0.00 0.00 92 1015.8
20260902053345 80 98 0.0 0.0 0.00 0.00 0.00 92 1015.9
20260902053026 80 98 0.0 0.0 0.00 0.00 0.00 92 1015.7
20260902052819 80 98 0.0 0.0 0.00 0.00 0.00 92 1016.0
20260902052317 80 98 0.0 0.0 0.00 0.00 0.00 93 1016.0
20260902051831 80 98 0.0 0.0 0.00 0.00 0.00 93 1016.0
20260902051512 79 135 0.0 0.0 0.00 0.00 0.00 93 1015.9
20260902051328 80 136 0.0 0.0 0.00 0.00 0.00 93 1016.1
20260902050824 80 33 0.0 0.0 0.00 0.00 0.00 93 1016.1
20260902050320 80 27 0.0 0.0 0.00 0.00 0.00 93 1016.0
20260902050107 79 27 0.0 0.0 0.00 0.00 0.00 93 1015.9
20260902050008 79 27 0.0 0.0 0.00 0.00 0.00 93 1015.9
20260902045815 80 27 0.0 0.0 0.00 0.00 0.00 93 1016.1
20260902045329 79 27 0.0 0.0 0.00 0.00 0.00 92 1016.0
20260902044827 79 27 0.0 0.0 0.00 0.00 0.00 93 1016.1
20260902044522 79 27 0.0 0.0 0.00 0.00 0.00 93 1016.0
20260902044323 80 27 0.0 0.0 0.00 0.00 0.00 93 1016.1
20260902043821 79 27 0.0 0.0 0.00 0.00 0.00 92 1016.0
20260902043318 79 27 0.0 0.0 0.00 0.00 0.00 92 1015.9
20260902043024 79 27 0.0 0.0 0.00 0.00 0.00 92 1015.9
20260902042833 79 27 0.0 0.0 0.00 0.00 0.00 92 1016.1
20260902042330 79 27 0.0 0.0 0.00 0.00 0.00 92 1016.1
20260902041827 79 27 0.0 0.0 0.00 0.00 0.00 92 1016.0
20260902041557 79 27 0.0 0.0 0.00 0.00 0.00 92 1015.9
20260902041324 80 27 0.0 0.0 0.00 0.00 0.00 92 1016.1
20260902040822 80 27 0.0 0.0 0.00 0.00 0.00 92 1016.2
20260902040318 80 27 0.0 0.0 0.00 0.00 0.00 92 1016.2
20260902040022 79 27 0.0 0.0 0.00 0.00 0.00 92 1016.1
20260902035815 80 27 0.0 0.0 0.00 0.00 0.00 92 1016.3
20260902035332 80 27 0.0 0.0 0.00 0.00 0.00 92 1016.3
20260902034849 80 27 0.0 0.0 0.00 0.00 0.00 92 1016.3
20260902034541 79 27 0.0 0.0 0.00 0.00 0.00 92 1016.1
20260902034325 80 27 0.0 0.0 0.00 0.00 0.00 92 1016.2
20260902033822 80 27 0.0 0.0 0.00 0.00 0.00 91 1016.3
20260902033319 80 27 0.0 0.0 0.00 0.00 0.00 91 1016.4
20260902033024 79 27 0.0 0.0 0.00 0.00 0.00 91 1016.3
20260902032818 80 27 0.0 0.0 0.00 0.00 0.00 91 1016.5
20260902032333 80 27 0.0 0.0 0.00 0.00 0.00 91 1016.5
20260902031850 80 27 0.0 0.0 0.00 0.00 0.00 91 1016.6
20260902031600 79 27 0.0 0.0 0.00 0.00 0.00 91 1016.5
20260902031327 80 27 0.0 0.0 0.00 0.00 0.00 91 1016.5
20260902030839 80 27 0.0 0.0 0.00 0.00 0.00 91 1016.6
20260902030316 80 27 0.0 0.0 0.00 0.00 0.00 90 1016.7
20260902030012 80 27 0.0 0.0 0.00 0.00 0.00 90 1016.6
20260902025832 80 27 0.0 0.0 0.00 0.00 0.00 90 1016.8
20260902025328 80 27 0.0 0.0 0.00 0.00 0.00 90 1016.8
20260902024825 81 27 0.0 0.0 0.00 0.00 0.00 90 1016.7
20260902024559 80 27 0.0 0.0 0.00 0.00 0.00 90 1016.6
20260902024322 81 27 0.0 0.0 0.00 0.00 0.00 90 1016.6
20260902023820 81 56 0.0 0.0 0.00 0.00 0.00 90 1016.7
20260902023337 81 74 0.0 0.0 0.00 0.00 0.00 90 1016.8
20260902023020 80 74 0.0 0.0 0.00 0.00 0.00 90 1016.6
20260902022833 81 74 0.0 0.0 0.00 0.00 0.00 90 1016.8
20260902022351 81 74 0.0 0.0 0.00 0.00 0.00 89 1016.8
20260902021825 81 74 0.0 0.0 0.00 0.00 0.00 89 1016.6
20260902021537 81 74 0.0 0.0 0.00 0.00 0.00 89 1016.4
20260902021343 81 74 0.0 0.0 0.00 0.00 0.00 89 1016.5
20260902020841 81 77 0.0 0.0 0.00 0.00 0.00 89 1016.6
20260902020318 81 97 0.0 0.0 0.00 0.00 0.00 89 1016.6
20260902020040 81 97 0.0 0.0 0.00 0.00 0.00 89 1016.6
20260902015815 81 97 0.0 0.0 0.00 0.00 0.00 89 1016.7
20260902015331 81 97 0.0 0.0 0.00 0.00 0.00 89 1016.6
20260902014829 81 97 0.0 0.0 0.00 0.00 0.00 89 1016.5
20260902014529 81 97 0.0 0.0 0.00 0.00 0.00 89 1016.4
20260902014327 81 97 0.0 0.0 0.00 0.00 0.00 89 1016.5
20260902013823 81 97 0.0 0.0 0.00 0.00 0.00 88 1016.5
20260902013321 81 97 0.0 0.0 0.00 0.00 0.00 88 1016.4
20260902013056 81 97 0.0 0.0 0.00 0.00 0.00 88 1016.3
20260902012816 81 97 0.0 0.0 0.00 0.00 0.00 88 1016.4
20260902012333 81 97 0.0 0.0 0.00 0.00 0.00 88 1016.3
20260902011831 81 97 0.0 0.0 0.00 0.00 0.00 88 1016.2
20260902011545 80 97 0.0 0.0 0.00 0.00 0.00 88 1016.2
20260902011327 81 97 0.0 0.0 0.00 0.00 0.00 88 1016.3